Time,TemperatureF,DewpointF,PressureIn,WindDirection,WindDirectionDegrees,WindSpeedMPH,WindSpeedGustMPH,Humidity,HourlyPrecipIn,Conditions,Clouds,dailyrainin,SoftwareType,DateUTC
2013-07-17 00:10:00,76.3,69.7,30.23,SW,225,3.2,-999.0,80,-99.99,,,0.00,Acu-Link.com,2013-07-17 05:10:00,
2013-07-17 00:25:00,76.1,69.5,30.23,SW,225,2.7,-999.0,80,-99.99,,,0.00,Acu-Link.com,2013-07-17 05:25:00,
2013-07-17 00:40:00,76.5,69.9,30.23,SSW,202,3.7,-999.0,80,-99.99,,,0.00,Acu-Link.com,2013-07-17 05:40:00,
2013-07-17 00:55:00,76.1,69.8,30.23,SW,225,3.2,-999.0,81,-99.99,,,0.00,Acu-Link.com,2013-07-17 05:55:00,
2013-07-17 01:11:00,75.9,69.6,30.23,South,180,3.2,-999.0,81,-99.99,,,0.00,Acu-Link.com,2013-07-17 06:11:00,
2013-07-17 01:26:00,75.6,69.7,30.23,South,180,3.2,-999.0,82,-99.99,,,0.00,Acu-Link.com,2013-07-17 06:26:00,
2013-07-17 01:41:00,75.4,69.9,30.23,South,180,2.2,-999.0,83,-99.99,,,0.00,Acu-Link.com,2013-07-17 06:41:00,
2013-07-17 01:57:00,75.4,69.9,30.23,SW,225,2.7,-999.0,83,-99.99,,,0.00,Acu-Link.com,2013-07-17 06:57:00,
2013-07-17 02:12:00,74.8,69.6,30.24,WSW,247,0.0,-999.0,84,-99.99,,,0.00,Acu-Link.com,2013-07-17 07:12:00,
2013-07-17 02:27:00,74.3,69.5,30.24,WSW,247,2.7,-999.0,85,-99.99,,,0.00,Acu-Link.com,2013-07-17 07:27:00,
2013-07-17 02:43:00,73.8,69.3,30.24,SSW,202,2.7,-999.0,86,-99.99,,,0.00,Acu-Link.com,2013-07-17 07:43:00,
2013-07-17 02:58:00,73.8,69.3,30.23,WSW,247,1.7,-999.0,86,-99.99,,,0.00,Acu-Link.com,2013-07-17 07:58:00,
2013-07-17 03:13:00,73.2,69.1,30.24,WSW,247,1.7,-999.0,87,-99.99,,,0.00,Acu-Link.com,2013-07-17 08:13:00,
2013-07-17 03:29:00,72.7,68.9,30.24,SW,225,0.0,-999.0,88,-99.99,,,0.00,Acu-Link.com,2013-07-17 08:29:00,
2013-07-17 03:44:00,72.5,69.1,30.24,WSW,247,0.0,-999.0,89,-99.99,,,0.00,Acu-Link.com,2013-07-17 08:44:00,
2013-07-17 03:59:00,72.0,68.9,30.24,SW,225,2.7,-999.0,90,-99.99,,,0.00,Acu-Link.com,2013-07-17 08:59:00,
2013-07-17 04:14:00,72.5,69.1,30.24,WSW,247,2.2,-999.0,89,-99.99,,,0.00,Acu-Link.com,2013-07-17 09:14:00,
2013-07-17 04:29:00,72.1,69.0,30.24,WSW,247,0.0,-999.0,90,-99.99,,,0.00,Acu-Link.com,2013-07-17 09:29:00,
2013-07-17 04:44:00,72.0,68.9,30.24,WSW,247,0.0,-999.0,90,-99.99,,,0.00,Acu-Link.com,2013-07-17 09:44:00,
2013-07-17 05:00:00,72.0,68.9,30.23,WSW,247,2.7,-999.0,90,-99.99,,,0.00,Acu-Link.com,2013-07-17 10:00:00,
2013-07-17 05:15:00,71.6,68.5,30.24,WSW,247,0.0,-999.0,90,-99.99,,,0.00,Acu-Link.com,2013-07-17 10:15:00,
2013-07-17 05:30:00,71.2,68.4,30.24,WSW,247,0.0,-999.0,91,-99.99,,,0.00,Acu-Link.com,2013-07-17 10:30:00,
2013-07-17 05:45:00,70.9,68.1,30.23,WSW,247,0.0,-999.0,91,-99.99,,,0.00,Acu-Link.com,2013-07-17 10:45:00,
2013-07-17 06:01:00,70.3,67.9,30.24,West,270,0.0,-999.0,92,-99.99,,,0.00,Acu-Link.com,2013-07-17 11:01:00,
2013-07-17 06:16:00,69.8,68.0,30.25,West,270,0.0,-999.0,94,-99.99,,,0.00,Acu-Link.com,2013-07-17 11:16:00,
2013-07-17 06:31:00,71.1,69.0,30.25,West,270,1.1,-999.0,93,-99.99,,,0.00,Acu-Link.com,2013-07-17 11:31:00,
2013-07-17 06:46:00,72.9,69.5,30.25,West,270,2.7,-999.0,89,-99.99,,,0.00,Acu-Link.com,2013-07-17 11:46:00,
2013-07-17 07:02:00,74.3,70.2,30.25,West,270,0.0,-999.0,87,-99.99,,,0.00,Acu-Link.com,2013-07-17 12:02:00,
2013-07-17 07:17:00,75.9,70.4,30.26,West,270,2.2,-999.0,83,-99.99,,,0.00,Acu-Link.com,2013-07-17 12:17:00,
2013-07-17 07:32:00,77.0,71.1,30.26,West,270,2.2,-999.0,82,-99.99,,,0.00,Acu-Link.com,2013-07-17 12:32:00,
2013-07-17 07:47:00,78.4,71.7,30.26,West,270,0.0,-999.0,80,-99.99,,,0.00,Acu-Link.com,2013-07-17 12:47:00,
2013-07-17 08:03:00,80.1,71.8,30.27,West,270,0.0,-999.0,76,-99.99,,,0.00,Acu-Link.com,2013-07-17 13:03:00,
2013-07-17 08:18:00,80.6,71.9,30.27,SSW,202,1.7,-999.0,75,-99.99,,,0.00,Acu-Link.com,2013-07-17 13:18:00,
2013-07-17 08:33:00,83.5,72.2,30.27,WNW,292,0.0,-999.0,69,-99.99,,,0.00,Acu-Link.com,2013-07-17 13:33:00,
2013-07-17 08:48:00,84.2,72.5,30.28,NW,315,0.0,-999.0,68,-99.99,,,0.00,Acu-Link.com,2013-07-17 13:48:00,
2013-07-17 09:04:00,86.4,72.8,30.27,North,0,0.0,-999.0,64,-99.99,,,0.00,Acu-Link.com,2013-07-17 14:04:00,
2013-07-17 09:19:00,88.9,73.2,30.27,North,0,0.0,-999.0,60,-99.99,,,0.00,Acu-Link.com,2013-07-17 14:19:00,
2013-07-17 09:34:00,84.9,71.8,30.27,North,0,3.2,-999.0,65,-99.99,,,0.00,Acu-Link.com,2013-07-17 14:34:00,
2013-07-17 09:49:00,85.1,71.5,30.27,North,0,0.0,-999.0,64,-99.99,,,0.00,Acu-Link.com,2013-07-17 14:49:00,
2013-07-17 10:05:00,88.0,70.8,30.27,NNE,22,1.7,-999.0,57,-99.99,,,0.00,Acu-Link.com,2013-07-17 15:05:00,
2013-07-17 10:20:00,87.6,71.0,30.27,NNE,22,0.0,-999.0,58,-99.99,,,0.00,Acu-Link.com,2013-07-17 15:20:00,
2013-07-17 10:35:00,89.8,72.5,30.26,South,180,0.0,-999.0,57,-99.99,,,0.00,Acu-Link.com,2013-07-17 15:35:00,
2013-07-17 10:50:00,89.4,72.6,30.26,SE,135,3.7,-999.0,58,-99.99,,,0.00,Acu-Link.com,2013-07-17 15:50:00,
2013-07-17 11:05:00,90.0,71.6,30.26,SSW,202,4.2,-999.0,55,-99.99,,,0.00,Acu-Link.com,2013-07-17 16:05:00,
2013-07-17 11:21:00,89.6,70.7,30.26,WSW,247,0.0,-999.0,54,-99.99,,,0.00,Acu-Link.com,2013-07-17 16:21:00,
2013-07-17 11:36:00,90.5,71.5,30.26,NE,45,6.3,-999.0,54,-99.99,,,0.00,Acu-Link.com,2013-07-17 16:36:00,
2013-07-17 11:51:00,91.0,72.0,30.26,South,180,5.8,-999.0,54,-99.99,,,0.00,Acu-Link.com,2013-07-17 16:51:00,
2013-07-17 12:06:00,91.0,70.9,30.26,ESE,112,3.2,-999.0,52,-99.99,,,0.00,Acu-Link.com,2013-07-17 17:06:00,
2013-07-17 12:22:00,90.1,70.6,30.25,SSW,202,2.7,-999.0,53,-99.99,,,0.00,Acu-Link.com,2013-07-17 17:22:00,
2013-07-17 12:37:00,90.7,71.7,30.25,South,180,4.2,-999.0,54,-99.99,,,0.00,Acu-Link.com,2013-07-17 17:37:00,
2013-07-17 12:52:00,90.5,71.5,30.25,East,90,2.2,-999.0,54,-99.99,,,0.00,Acu-Link.com,2013-07-17 17:52:00,
2013-07-17 13:07:00,91.2,72.7,30.24,ESE,112,2.2,-999.0,55,-99.99,,,0.00,Acu-Link.com,2013-07-17 18:07:00,
2013-07-17 13:23:00,93.2,72.9,30.24,SSW,202,1.1,-999.0,52,-99.99,,,0.00,Acu-Link.com,2013-07-17 18:23:00,
2013-07-17 13:38:00,92.3,71.5,30.24,SSE,157,2.7,-999.0,51,-99.99,,,0.00,Acu-Link.com,2013-07-17 18:38:00,
2013-07-17 13:53:00,92.3,71.5,30.23,SSW,202,2.2,-999.0,51,-99.99,,,0.00,Acu-Link.com,2013-07-17 18:53:00,
2013-07-17 14:08:00,90.5,73.1,30.22,South,180,1.1,-999.0,57,-99.99,,,0.00,Acu-Link.com,2013-07-17 19:08:00,
2013-07-17 14:23:00,92.8,72.0,30.22,ENE,67,0.0,-999.0,51,-99.99,,,0.00,Acu-Link.com,2013-07-17 19:23:00,
2013-07-17 14:38:00,93.6,73.8,30.21,ESE,112,3.7,-999.0,53,-99.99,,,0.00,Acu-Link.com,2013-07-17 19:38:00,
2013-07-17 14:54:00,91.9,75.0,30.21,SE,135,6.3,-999.0,58,-99.99,,,0.00,Acu-Link.com,2013-07-17 19:54:00,
2013-07-17 15:09:00,78.6,72.3,30.21,SSE,157,2.7,-999.0,81,-99.99,,,0.05,Acu-Link.com,2013-07-17 20:09:00,
2013-07-17 15:24:00,81.5,74.3,30.20,SSE,157,1.7,-999.0,79,-99.99,,,0.06,Acu-Link.com,2013-07-17 20:24:00,
2013-07-17 15:39:00,85.1,76.7,30.20,SSE,157,0.0,-999.0,76,-99.99,,,0.06,Acu-Link.com,2013-07-17 20:39:00,
2013-07-17 15:54:00,88.5,74.3,30.19,SSE,157,0.0,-999.0,63,-99.99,,,0.06,Acu-Link.com,2013-07-17 20:54:00,
2013-07-17 16:10:00,90.7,77.3,30.18,SSE,157,0.0,-999.0,65,-99.99,,,0.06,Acu-Link.com,2013-07-17 21:10:00,
2013-07-17 16:25:00,92.7,75.2,30.18,South,180,3.2,-999.0,57,-99.99,,,0.06,Acu-Link.com,2013-07-17 21:25:00,
2013-07-17 16:40:00,92.3,75.3,30.17,South,180,5.3,-999.0,58,-99.99,,,0.06,Acu-Link.com,2013-07-17 21:40:00,
2013-07-17 16:56:00,91.0,73.6,30.17,SSE,157,0.0,-999.0,57,-99.99,,,0.06,Acu-Link.com,2013-07-17 21:56:00,
2013-07-17 17:11:00,92.1,73.0,30.17,SSW,202,6.8,-999.0,54,-99.99,,,0.06,Acu-Link.com,2013-07-17 22:11:00,
2013-07-17 17:26:00,92.3,73.2,30.17,SSW,202,4.7,-999.0,54,-99.99,,,0.06,Acu-Link.com,2013-07-17 22:26:00,
2013-07-17 17:41:00,92.7,73.0,30.16,SSW,202,0.0,-999.0,53,-99.99,,,0.06,Acu-Link.com,2013-07-17 22:41:00,
2013-07-17 17:56:00,95.5,73.2,30.16,SSW,202,0.0,-999.0,49,-99.99,,,0.06,Acu-Link.com,2013-07-17 22:56:00,
2013-07-17 18:11:00,93.9,73.0,30.16,SSW,202,2.2,-999.0,51,-99.99,,,0.06,Acu-Link.com,2013-07-17 23:11:00,
2013-07-17 18:26:00,94.3,73.3,30.15,SSW,202,4.2,-999.0,51,-99.99,,,0.06,Acu-Link.com,2013-07-17 23:26:00,
2013-07-17 18:42:00,94.8,74.4,30.15,SSW,202,0.0,-999.0,52,-99.99,,,0.06,Acu-Link.com,2013-07-17 23:42:00,
2013-07-17 18:57:00,92.1,73.6,30.15,South,180,2.7,-999.0,55,-99.99,,,0.06,Acu-Link.com,2013-07-17 23:57:00,
2013-07-17 19:12:00,92.7,74.7,30.14,South,180,2.2,-999.0,56,-99.99,,,0.06,Acu-Link.com,2013-07-18 00:12:00,
2013-07-17 19:27:00,91.6,74.7,30.14,South,180,1.1,-999.0,58,-99.99,,,0.06,Acu-Link.com,2013-07-18 00:27:00,
2013-07-17 19:43:00,91.8,75.4,30.14,South,180,0.0,-999.0,59,-99.99,,,0.06,Acu-Link.com,2013-07-18 00:43:00,
2013-07-17 19:58:00,91.4,76.5,30.14,South,180,0.0,-999.0,62,-99.99,,,0.06,Acu-Link.com,2013-07-18 00:58:00,
2013-07-17 20:13:00,89.2,76.3,30.14,South,180,0.0,-999.0,66,-99.99,,,0.06,Acu-Link.com,2013-07-18 01:13:00,
2013-07-17 20:28:00,86.5,76.0,30.14,South,180,0.0,-999.0,71,-99.99,,,0.06,Acu-Link.com,2013-07-18 01:28:00,
2013-07-17 20:43:00,83.8,74.6,30.14,South,180,0.0,-999.0,74,-99.99,,,0.06,Acu-Link.com,2013-07-18 01:43:00,
2013-07-17 20:59:00,81.5,74.0,30.14,South,180,0.0,-999.0,78,-99.99,,,0.06,Acu-Link.com,2013-07-18 01:59:00,
2013-07-17 21:14:00,79.3,73.7,30.14,South,180,0.0,-999.0,83,-99.99,,,0.06,Acu-Link.com,2013-07-18 02:14:00,
2013-07-17 21:29:00,77.7,72.8,30.15,South,180,0.0,-999.0,85,-99.99,,,0.06,Acu-Link.com,2013-07-18 02:29:00,
2013-07-17 21:44:00,77.4,72.2,30.14,South,180,0.0,-999.0,84,-99.99,,,0.06,Acu-Link.com,2013-07-18 02:44:00,
2013-07-17 22:01:00,77.4,71.8,30.14,South,180,0.0,-999.0,83,-99.99,,,0.06,Acu-Link.com,2013-07-18 03:01:00,
2013-07-17 22:16:00,76.8,71.6,30.15,South,180,0.0,-999.0,84,-99.99,,,0.06,Acu-Link.com,2013-07-18 03:16:00,
2013-07-17 22:31:00,75.9,71.4,30.15,South,180,0.0,-999.0,86,-99.99,,,0.06,Acu-Link.com,2013-07-18 03:31:00,
2013-07-17 22:47:00,75.0,70.9,30.15,South,180,0.0,-999.0,87,-99.99,,,0.06,Acu-Link.com,2013-07-18 03:47:00,
2013-07-17 23:02:00,74.7,70.6,30.15,South,180,0.0,-999.0,87,-99.99,,,0.06,Acu-Link.com,2013-07-18 04:02:00,
2013-07-17 23:17:00,74.7,70.9,30.15,South,180,0.0,-999.0,88,-99.99,,,0.06,Acu-Link.com,2013-07-18 04:17:00,
2013-07-17 23:32:00,74.3,70.5,30.16,South,180,0.0,-999.0,88,-99.99,,,0.06,Acu-Link.com,2013-07-18 04:32:00,
2013-07-17 23:47:00,73.8,70.3,30.15,South,180,0.0,-999.0,89,-99.99,,,0.06,Acu-Link.com,2013-07-18 04:47:00,